This is the latest recevied weather packets stored in our database for station/object OK2JF-6. If no packets are shown the sender has not sent any weather packets the latest 10 day(s).
| Time | Temp. | Humidity | Pressure | Rain* | Wind** | Luminosity | Snow |
|---|---|---|---|---|---|---|---|
| 1777666383 | 8.89° C | 66% | 1097.7 hPa | 0 mm | - | 0 W/m² | - |
| 1777666203 | 8.89° C | 66% | 1097.8 hPa | 0 mm | - | 0 W/m² | - |
| 1777665783 | 9.44° C | 66% | 1097.7 hPa | 0 mm | - | 0 W/m² | - |
| 1777665423 | 9.44° C | 65% | 1097.8 hPa | 0 mm | - | 0 W/m² | - |
| 1777664883 | 10° C | 61% | 1097.6 hPa | 0 mm | - | 0 W/m² | - |
| 1777664103 | 10.56° C | 63% | 1097.7 hPa | 0 mm | - | 0 W/m² | - |
| 1777663923 | 10.56° C | 60% | 1097.7 hPa | 0 mm | - | 0 W/m² | - |
| 1777663744 | 11.11° C | 60% | 1097.9 hPa | 0 mm | - | 0 W/m² | - |
| 1777663623 | 11.11° C | 60% | 1097.5 hPa | 0 mm | - | 0 W/m² | - |
| 1777663323 | 11.11° C | 59% | 1097.6 hPa | 0 mm | - | 0 W/m² | - |
| 1777663203 | 11.11° C | 58% | 1097.6 hPa | 0 mm | - | 0 W/m² | - |
| 1777663083 | 11.67° C | 59% | 1097.7 hPa | 0 mm | - | 0 W/m² | - |
| 1777662783 | 11.67° C | 58% | 1097.7 hPa | 0 mm | - | 0 W/m² | - |
| 1777662663 | 11.67° C | 58% | 1097.8 hPa | 0 mm | - | 0 W/m² | - |
| 1777661643 | 12.22° C | 56% | 1097.5 hPa | 0 mm | - | 0 W/m² | - |
| 1777661463 | 12.22° C | 55% | 1097.7 hPa | 0 mm | - | 0 W/m² | - |
| 1777661283 | 12.22° C | 55% | 1097.4 hPa | 0 mm | - | 0 W/m² | - |
| 1777660563 | 13.33° C | 51% | 1097.5 hPa | 0 mm | - | 0 W/m² | - |
| 1777658837 | 15.56° C | 47% | 1097.2 hPa | 0 mm | - | 3 W/m² | - |
| 1777658657 | 15.56° C | 47% | 1097 hPa | 0 mm | - | 4 W/m² | - |
| 1777658583 | 15.56° C | 46% | 1097.2 hPa | 0 mm | - | 4 W/m² | - |
| 1777658103 | 15.56° C | 45% | 1097 hPa | 0 mm | - | 6 W/m² | - |
| 1777657863 | 16.11° C | 45% | 1097.1 hPa | 0 mm | - | 8 W/m² | - |
| 1777657817 | 16.11° C | 44% | 1097.2 hPa | 0 mm | - | 8 W/m² | - |
| 1777657624 | 16.11° C | 44% | 1097.2 hPa | 0 mm | - | 9 W/m² | - |
* Rain latest hour (hover to see other rain measurements)
** Current wind speed in m/s (hover to see current wind gust speed)